Location: 81360 Arifat, France
(43.7204°N, 2.3408°E)
Time: 17:45:05
(UTC+02:00)

X-37B - Pass Details

Date: 04 October 2021
Orbit: 385 x 389 km, 45.0° (Epoch: 17 October)

Event Time Altitude Azimuth Distance (km) Brightness Sun altitude
Exits shadow 06:34:24 23° 215° (SW) 861 1.9 -14.8°
Maximum altitude 06:34:32 24° 211° (SSW) 859 2.0 -14.7°
Drops below altitude 10° 06:37:08 10° 155° (SSE) 1,405 3.6 -14.3°
Sets 06:39:26 0° 141° (SE) 2,257 4.9 -13.9°
